Regional Weather Roundup
Issued by NWS Kansas City/Pleasant Hill, MO

Home | Current Version | Previous Version | Graphics & Text | Print | Product List | Glossary Off
Versions: 1 2 3 4 5 6 7 8 9 10 11 12 13 14 15 16 17 18 19 20 21 22 23 24 25 26 27 28 29 30 31 32 33 34 35 36 37 38 39 40 41 42 43 44 45 46 47 48 49 50

000
ASUS43 KEAX 212311
RWREAX

WEATHER ROUNDUP FOR EASTERN KANSAS AND NORTHWEST MISSOURI
NATIONAL WEATHER SERVICE KANSAS CITY/PLEASANT HILL MO
500 PM CST SUN DEC 21 2014

KSZ040-057-103>105-MOZ028-029-037-043-220000-
...KANSAS CITY METROPOLITAN AREA...

CITY           SKY/WX    TMP DP  RH WIND       PRES   REMARKS
K.C. INTL      CLOUDY    44  40  85 S12       29.82F
K.C. DOWNTOWN  CLOUDY    46  40  79 S13G18    29.84F
LEES SUMMIT    CLOUDY    44  41  89 S9        29.85F
OLATHE - IXD   CLOUDY    43  41  93 S14       29.83F FOG
OLATHE - OJC   CLOUDY    43  41  93 S13       29.82F
LAWRENCE       CLOUDY    45  40  82 S14       29.82F

$$

MOZ001>008-011>017-020>025-030>033-038>040-044>046-053-054-220000-
...NORTHERN AND CENTRAL MISSOURI...

CITY           SKY/WX    TMP DP  RH WIND       PRES   REMARKS
ST. JOSEPH     CLOUDY    44  39  82 S10       29.82F
MOSBY          CLOUDY    45  41  87 SE7       29.85S
WHITEMAN AFB   CLOUDY    44  39  83 S13       29.88S
CLINTON        CLOUDY    45  39  81 S12       29.89F
SEDALIA        CLOUDY    44  38  79 S10       29.90F
WARSAW         NOT AVBL
MARSHALL       CLOUDY    46  41  81 SE13      29.91S
CHILLICOTHE      N/A     44  41  89 S9        29.88S
KIRKSVILLE     LGT RAIN  42  40  92 S12       29.90S

$$

MOZ041-047>049-056>058-063>065-088>090-097-220000-
...EASTERN AND SOUTHERN MISSOURI...

CITY           SKY/WX    TMP DP  RH WIND       PRES   REMARKS
ST. LOUIS INTL CLOUDY    44  32  62 SE13      30.02F
SPIRIT OF STL  CLOUDY    42  33  70 SE7       30.01F
COLUMBIA       CLOUDY    42  37  82 SE15      29.93S WCI  34
JEFFERSON CITY CLOUDY    43  36  76 SE10      29.96R
MEXICO         CLOUDY    45  41  87 S14       29.94F
HANNIBAL       CLOUDY    45  34  65 S8G16     29.95S
ROLLA          CLOUDY    39  33  79 SE8       29.95F WCI  33
LEBANON        CLOUDY    41  36  81 SE6       29.93F
OSAGE BEACH    CLOUDY    43  34  70 SE7       29.93F
SPRINGFIELD    CLOUDY    42  36  79 SE14      29.89F WCI  35
BRANSON        CLOUDY    45  37  76 CALM      29.93F
NEVADA         CLOUDY    45  39  81 SE12      29.87F
JOPLIN         CLOUDY    47  38  71 S12       29.87F
WEST PLAINS    CLOUDY    41  33  73 E7        29.97F

$$

IAZ060-094-KSZ022-034>040-054-083-096-NEZ052-066-093-220000-
...KANSAS...SOUTHEAST NEBRASKA AND IOWA...

CITY           SKY/WX    TMP DP  RH WIND       PRES   REMARKS
TOPEKA         LGT RAIN  45  43  93 SE10      29.80F FOG
MANHATTAN      CLOUDY    44  42  93 S13       29.74F FOG
EMPORIA        CLOUDY    43  42  97 S16       29.78S FOG
CHANUTE        CLOUDY    46  41  82 S15G23    29.83F
WICHITA        DRIZZLE   46  43  89 S15       29.73F FOG
OMAHA          CLOUDY    41  38  89 S16       29.73F WCI  33
LINCOLN        CLOUDY    42  39  89 S18       29.69F FOG     WCI  34
FALLS CITY     CLOUDY    43  39  86 S13       29.76F
LAMONI         CLOUDY    41  39  93 S8        29.82F
DES MOINES     CLOUDY    43  37  79 S13       29.82S

$$




USA.gov is the U.S. government's official web portal to all federal, state and local government web resources and services.